This is the latest recevied weather packets stored in our database for station/object N7WSS. If no packets are shown the sender has not sent any weather packets the latest 10 day(s).
| Time | Temp. | Humidity | Pressure | Rain* | Wind** | Luminosity | Snow |
|---|---|---|---|---|---|---|---|
| 1777528009 | 18.33° C | 21% | 1012.7 hPa | 0 mm | - | - | - |
| 1777527704 | 18.89° C | 21% | 1012.7 hPa | 0 mm | - | - | - |
| 1777527400 | 18.89° C | 21% | 1012.9 hPa | 0 mm | - | - | - |
| 1777527095 | 18.89° C | 21% | 1012.7 hPa | 0 mm | - | - | - |
| 1777526791 | 18.89° C | 21% | 1012.9 hPa | 0 mm | - | - | - |
| 1777526486 | 18.89° C | 21% | 1012.8 hPa | 0 mm | - | - | - |
| 1777526181 | 18.89° C | 21% | 1012.7 hPa | 0 mm | - | - | - |
| 1777525877 | 18.89° C | 21% | 1012.8 hPa | 0 mm | - | - | - |
| 1777525575 | 18.89° C | 21% | 1012.7 hPa | 0 mm | - | - | - |
| 1777525273 | 18.89° C | 21% | 1012.8 hPa | 0 mm | - | - | - |
| 1777524968 | 18.89° C | 20% | 1012.8 hPa | 0 mm | - | - | - |
| 1777524665 | 18.89° C | 20% | 1012.8 hPa | 0 mm | - | - | - |
| 1777524364 | 18.89° C | 20% | 1012.6 hPa | 0 mm | - | - | - |
| 1777524058 | 18.89° C | 20% | 1012.6 hPa | 0 mm | - | - | - |
| 1777523756 | 19.44° C | 20% | 1012.8 hPa | 0 mm | - | - | - |
| 1777523452 | 18.89° C | 20% | 1012.9 hPa | 0 mm | - | - | - |
| 1777523148 | 19.44° C | 20% | 1012.9 hPa | 0 mm | - | - | - |
| 1777522844 | 19.44° C | 19% | 1012.7 hPa | 0 mm | - | - | - |
| 1777522541 | 20° C | 19% | 1012.8 hPa | 0 mm | - | - | - |
| 1777522238 | 20° C | 18% | 1012.6 hPa | 0 mm | - | - | - |
| 1777521935 | 20° C | 18% | 1012.5 hPa | 0 mm | - | - | - |
| 1777521632 | 20.56° C | 18% | 1012.3 hPa | 0 mm | - | - | - |
| 1777521329 | 20.56° C | 18% | 1012.4 hPa | 0 mm | - | - | - |
| 1777521026 | 20.56° C | 19% | 1012.4 hPa | 0 mm | - | - | - |
| 1777520723 | 20° C | 19% | 1012.3 hPa | 0 mm | - | - | - |
* Rain latest hour (hover to see other rain measurements)
** Current wind speed in m/s (hover to see current wind gust speed)